Location: Unspecified
(0.0000°N, 0.0000°E)
Time: 19:45:22
(UTC+00:00)

CZ-3C DEB - Pass Details

Date: 07 March 2026
Orbit: 404 x 27665 km, 19.3° (Epoch: 21 April)

Event Time Altitude Azimuth Distance (km) Brightness Sun altitude
Rises 18:39:17 0° 274° (W) 8,311 ? -7.0°
Reaches altitude 10° 18:43:10 10° 277° (W) 8,400 ? -8.0°
Enters shadow 00:16:13 67° 322° (NW) 22,062 ? -84.5°
Exits shadow 01:27:55 81° 29° (NNE) 10,809 ? -70.1°
Drops below altitude 10° 02:01:07 10° 106° (ESE) 6,166 ? -62.0°
Sets 02:03:37 0° 107° (ESE) 6,420 ? -61.4°
